Home   Weather   Landshut   Past weeks
Flag for Germany

Past Weather in Landshut, Bavaria, Germany — Yesterday and Last 2 Weeks

Now
68 °F

Sunny.


Feels Like: 68 °F
Forecast: 60 / 42 °F
Wind: 10 mph from East

Location: Munich / Franz Josef Strauss Airport

Current Time: Oct 15, 2019 at 4:05:13 pm

Latest Report: Oct 15, 2019 at 3:20 pm


Visibility: 10 mi

Pressure: 29.71 "Hg

Humidity: 56%

Dew Point: 52 °F

Location of LandshutLocation

Past Weather in Landshut — Graph

°F

Landshut Temperature Yesterday

Maximum temperature yesterday: 72 °F (at 1:50 pm)
Minimum temperature yesterday: 45 °F (at 4:20 am)
Average temperature yesterday: 56 °F

High & Low Weather Summary for the Past Weeks

 TemperatureHumidityPressure
High73 °F (Oct 1, 2:20 pm)100% (Oct 1, 3:50 am)30.21 "Hg (Oct 1, 3:50 am)
Low34 °F (Oct 4, 4:50 am)38% (Oct 1, 2:20 pm)29.68 "Hg (Oct 2, 3:50 am)
Average52 °F81%29.97 "Hg
* Reported Sep 30 2:20 pm — Oct 15 2:50 pm, Landshut. Weather by CustomWeather, © 2019

Note: Actual official high and low records may vary slightly from our data, if they occured in-between our weather recording intervals... More about our weather records

Advertising

Landshut Weather History for the Previous 24 Hours

Scroll right to see more
 ConditionsComfort  
Time TempWeatherWind HumidityBarometerVisibility
2:50 pm
Tue, Oct 15
68 °FPassing clouds.8 mph60%29.71 "HgN/A
2:20 pm66 °FPassing clouds.8 mph64%29.74 "HgN/A
1:50 pm66 °FPassing clouds.7 mph64%29.74 "HgN/A
1:20 pm64 °FPassing clouds.7 mph73%29.74 "HgN/A
12:50 pm61 °FPassing clouds.7 mph77%29.77 "HgN/A
12:20 pm59 °FPassing clouds.8 mph82%29.77 "HgN/A
11:50 am55 °FPassing clouds.5 mph88%29.80 "HgN/A
11:20 am54 °FPassing clouds.6 mph88%29.80 "HgN/A
10:50 am54 °FLight fog.6 mph88%29.80 "HgN/A
10:20 am50 °FCool.5 mph94%29.83 "Hg2 mi
9:50 am48 °FCool.2 mph94%29.83 "Hg2 mi
9:20 am46 °FCool.5 mph100%29.83 "Hg1 mi
8:50 am45 °FQuite cool.5 mph93%29.83 "Hg1 mi
8:20 am41 °FQuite cool.2 mph100%29.86 "Hg1 mi
7:50 am41 °FQuite cool.1 mph100%29.83 "Hg1 mi
7:20 am41 °FQuite cool.2 mph100%29.83 "Hg1 mi
6:50 am41 °FQuite cool.1 mph100%29.83 "Hg1 mi
6:20 am41 °FLight fog.3 mph100%29.86 "Hg1 mi
5:50 am41 °FLight fog.1 mph100%29.86 "Hg1 mi
5:20 am41 °FLight fog.1 mph100%29.86 "Hg1 mi
4:50 am43 °FLight fog.2 mph100%29.86 "Hg1 mi
4:20 am41 °FLight fog.1 mph100%29.89 "Hg1 mi
3:50 am43 °FLight fog.2 mph100%29.89 "Hg1 mi
3:20 am43 °FLight fog.3 mph100%29.89 "Hg2 mi
2:50 am43 °FLight fog.1 mph100%29.89 "Hg2 mi
2:20 am43 °FLight fog.1 mph100%29.89 "Hg2 mi
1:50 am45 °FLight fog.1 mph100%29.89 "Hg2 mi
1:20 am46 °FRain. Overcast.1 mph100%29.89 "Hg3 mi
12:50 am46 °FLight fog.2 mph93%29.89 "Hg5 mi
12:20 am46 °FLight fog.2 mph100%29.89 "HgN/A
11:50 pm
Mon, Oct 14
48 °FLight fog.2 mph94%29.89 "HgN/A
11:20 pm50 °FClear.2 mph100%29.89 "HgN/A
10:50 pm50 °FClear.1 mph100%29.89 "HgN/A
10:20 pm52 °FClear.1 mph100%29.89 "HgN/A
9:50 pm52 °FPassing clouds.3 mph100%29.89 "HgN/A
9:20 pm52 °FClear.1 mph100%29.92 "Hg10 mi
8:50 pm54 °FClear.1 mph94%29.92 "Hg10 mi
8:20 pm55 °FClear.2 mph94%29.92 "Hg10 mi
7:50 pm57 °FClear.2 mph94%29.92 "Hg10 mi
7:20 pm59 °FClear.3 mph82%29.92 "Hg10 mi
6:50 pm63 °FClear.1 mph83%29.92 "Hg10 mi
6:20 pm66 °FSunny.1 mph73%29.92 "Hg10 mi
5:50 pm70 °FSunny.2 mph64%29.92 "Hg10 mi
5:20 pm72 °FSunny.2 mph57%29.92 "Hg10 mi
4:50 pm72 °FPassing clouds.5 mph57%29.95 "HgN/A
4:20 pm72 °FPassing clouds.6 mph53%29.95 "HgN/A
Weather by CustomWeather, © 2019

See weather overview